SCP
0 0 0 0 0 0 0 0 0 0 0 0 0 0 0 0 0 0 0 0 0 0 0 0 0 0 0 0 0 0 0 0 0 0 0 0 1 1
0 0 0 0 0 0 0 0 0 0 0 0 0 0 0 0 0 0 0 0 0 0 0 0 0 0 0 0 0 0 0 0 0 0 0 0 0 0
0 0 0 0 0 0 0 0 0 0 0 0 0 0 0 0 0 0 0 0 0 0 0 0 0 0 0 0 0 0 0 0 0 0 0 0 0 0
0 0 0 0 0 0 0 0 0 0 0 0 0 0 0 0 0 0 0 0 0 0 0 0 0 0 0 0 0 0 0 0 0 0 0 0 0 0
0 0 0 0 0 0 0 0 0 0 0 0 0 0 0 0 0 0 0 0 0 0 0 0 0 0 0 0 0 0 0 0 0 0 0 0 0 0
0 0 0 0 0 0 0 0 0 0 0 0 0 0 0 0 0 0 0 0 0 0 0 0 0 0 0 0 0 0 0 0 0 0 0 0 0 0
0 0 0 0 0 0 0 0 0 0 0 0 0 0 0 0 0 0 0 0 0 0 0 0 0 0 0 0 0 0 0 0 0 0 0 0 0 0
1 1 0 0 0 0 0 0 0 0 0 0 0 0 0 0 0 0 0 0 0 0 0 0 0 0 0 0 0 0 0 0 0 0 0 0 0 0
1 1 1 0 0 0 0 0 0 0 0 0 0 0 0 0 0 0 0 0 0 0 0 0 0 0 0 0 0 0 0 0 0 0 0 0 0 0
1 1 1 1 0 0 0 0 0 0 0 0 0 0 0 0 0 0 0 0 0 0 0 0 0 0 0 0 0 0 0 0 0 0 0 0 0 0
1 1 1 1 0 0 0 0 0 0 0 0 0 0 0 0 0 0 0 0 0 0 0 0 0 0 0 0 0 0 0 0 0 0 0 0 0 0
1 1 1 0 0 0 0 0 0 0 0 0 0 0 0 0 0 0 0 0 0 0 0 0 0 0 0 0 0 0 0 0 0 0 0 0 0 0
0 0 0 0 0 0 0 0 0 0 0 0 0 0 0 0 0 0 0 0 0 0 0 0 0 0 0 0 0 0 0 0 0 0 0 0 0 0
0 0 0 0 0 0 0 0 0 0 0 0 0 0 0 0 0 0 0 0 0 0 0 0 0 0 0 0 0 0 0 0 0 0 0 0 0 0
0 0 0 0 0 0 0 0 0 0 0 0 0 0 0 0 0 0 0 0 0 0 0 0 0 0 0 0 0 0 0 0 0 0 0 0 0 0
0 0 0 0 0 0 0 0 0 0 0 0 0 0 0 0 1 1 0 0 0 0 0 0 0 0 0 0 0 0 0 0 0 0 0 0 0 0
0 0 0 0 0 0 0 0 0 0 0 0 0 0 0 1 1 1 0 0 0 0 0 0 0 0 0 0 0 0 0 0 0 0 0 0 0 0
0 0 0 0 0 0 0 0 0 0 0 0 0 1 1 0 0 1 0 0 0 0 0 0 0 0 0 0 0 0 0 0 0 0 0 0 0 0
0 0 0 0 0 0 0 0 0 0 1 1 1 1 0 0 0 0 0 0 0 0 0 0 0 0 0 0 0 0 0 0 0 0 0 0 0 0
0 0 0 0 0 0 0 0 0 0 0 0 0 0 0 0 0 0 0 0 0 0 0 0 0 0 0 0 0 0 0 0 0 0 0 0 0 0
0 0 0 0 0 0 0 0 0 0 0 0 0 0 0 0 0 0 0 0 0 0 0 0 0 0 0 0 0 0 0 0 0 0 0 0 0 0
0 0 0 0 0 0 0 0 0 0 0 0 0 0 0 0 0 0 0 0 0 0 0 0 0 0 0 0 0 0 0 0 0 0 0 0 0 0
0 0 0 0 0 0 0 0 0 0 0 0 0 0 0 0 0 0 0 0 0 0 0 0 0 0 0 0 0 0 0 0 0 0 0 0 0 0
Wind_Speed
5 6 6 3 4 4 4 5 6 7 5 3 4 2 3 4 2 6 6 0 3 5 5 6 6 7 8 9 9 10 10 11 12 13 15 16 18 20
5 5 6 6 4 5 5 5 6 7 7 4 3 5 4 6 4 6 8 5 9 8 6 6 7 8 8 9 9 10 10 11 11 12 13 15 16 17
8 8 8 8 6 6 6 6 6 7 8 8 6 5 6 8 7 7 8 8 8 10 7 6 7 8 9 9 10 10 11 11 12 12 13 13 14 16
10 9 10 8 9 8 7 8 7 7 9 10 8 7 8 8 8 9 9 9 9 6 8 8 9 9 10 10 10 11 11 12 12 13 13 14 15 16
10 10 10 10 10 9 9 9 8 8 8 9 10 7 7 7 8 9 11 8 10 9 10 12 12 11 10 10 11 11 12 12 13 13 13 14 14 15
11 11 11 12 12 11 10 10 10 10 9 10 10 9 8 8 8 9 9 8 9 9 8 8 9 11 12 12 12 12 12 12 12 13 13 14 14 14
12 13 13 13 12 10 10 10 10 10 10 10 10 9 9 7 8 8 9 8 8 8 9 9 9 10 11 14 16 14 12 11 12 12 13 14 14 14
13 13 13 14 15 16 15 14 13 13 13 11 10 11 10 10 8 8 9 9 9 7 8 9 9 9 9 10 8 10 10 11 12 12 13 14 14 14
13 13 12 12 14 15 17 20 19 20 18 15 15 14 12 10 10 11 11 11 10 8 7 10 9 10 10 9 7 8 10 12 13 13 14 14 14 14
15 15 14 14 14 14 14 15 16 17 18 18 17 16 15 12 11 12 12 12 12 11 11 12 11 11 10 9 10 13 13 14 14 14 14 14 14 14
16 15 16 16 15 14 15 16 16 15 16 17 17 16 13 10 9 10 11 12 12 11 10 11 11 11 10 10 10 14 15 15 15 15 14 14 14 13
12 13 15 17 15 14 16 16 17 17 16 14 16 17 17 17 16 16 14 13 12 12 10 10 10 10 11 10 10 8 10 14 16 15 15 14 13 10
12 11 11 12 15 15 16 16 17 15 14 15 14 14 15 14 15 17 16 15 14 13 9 8 10 10 10 10 9 8 9 9 10 12 15 16 15 13
12 12 11 9 11 14 14 16 17 14 13 13 14 14 14 13 13 15 16 17 15 15 12 11 10 10 11 12 11 10 9 9 9 10 10 11 15 17
12 14 15 15 13 13 17 18 16 13 14 15 15 15 14 13 12 11 14 14 16 16 15 16 14 12 12 13 13 12 11 10 10 10 11 10 10 10
11 12 14 17 16 17 15 14 14 14 14 15 15 15 13 12 12 12 12 12 13 14 16 17 16 16 15 15 13 13 12 12 10 10 10 10 10 11
13 13 13 13 13 12 13 13 13 13 14 15 14 14 13 13 12 11 11 12 13 13 12 12 15 15 17 15 14 14 13 13 12 11 11 12 12 12
13 13 14 14 14 14 13 13 13 14 13 14 14 14 13 13 12 11 11 13 13 13 12 12 10 11 12 13 14 15 14 13 12 12 12 13 13 12
13 13 13 13 13 13 13 13 13 13 12 12 12 13 12 12 12 12 12 12 13 13 13 12 11 12 13 14 14 18 16 13 12 12 12 13 13 12
11 12 12 12 12 12 13 12 12 12 11 11 12 12 12 12 12 12 13 14 13 13 13 12 12 13 14 14 12 10 18 15 12 12 12 11 12 11
12 12 12 12 12 12 12 12 11 11 12 10 10 11 11 11 12 13 13 13 13 12 13 13 12 13 11 10 12 12 12 17 15 12 11 11 11 11
12 12 11 12 12 11 11 10 10 10 10 10 10 10 10 11 13 14 12 11 11 12 14 11 10 10 10 12 14 14 14 11 15 18 16 15 12 12
12 12 11 11 11 10 9 9 11 9 9 9 8 9 10 10 10 10 11 12 11 11 11 10 9 9 11 12 13 13 16 15 11 11 13 17 20 19
Wind_Direction
233 217 246 254 252 266 270 277 288 293 285 205 240 225 255 281 316 288 290 49 312 295 286 280 272 263 257 250 247 246 244 242 242 241 240 238 235 232
251 265 259 263 254 256 259 260 264 277 286 292 262 268 295 298 252 277 278 256 245 245 256 272 274 269 262 256 250 247 245 244 244 243 241 239 238 237
236 236 238 258 262 258 250 252 255 259 267 275 273 262 259 273 283 280 273 269 256 209 221 254 266 266 262 258 254 250 246 245 244 244 244 242 240 239
237 238 240 237 236 254 258 255 254 258 263 272 277 271 253 255 262 268 270 265 270 217 210 241 255 257 255 254 253 251 251 249 247 246 246 246 245 244
237 237 239 241 240 242 243 251 252 246 247 261 266 267 265 259 261 259 260 260 268 253 220 226 235 242 247 248 247 247 248 248 249 248 248 248 247 247
238 239 239 238 238 240 241 243 251 257 253 255 262 262 257 252 252 261 261 245 249 263 262 253 232 228 237 239 238 239 242 245 247 249 249 249 249 249
239 239 239 238 240 240 246 244 241 244 251 252 257 260 258 254 254 257 263 266 256 255 261 258 245 239 230 227 228 230 233 240 247 249 249 249 249 249
245 243 242 231 230 228 239 249 253 250 251 256 259 259 261 260 259 264 269 266 265 253 251 259 260 260 257 255 227 202 220 240 249 251 251 250 248 248
249 247 247 243 230 233 226 228 237 243 247 253 259 261 262 256 258 258 254 262 269 277 267 265 262 260 258 257 217 214 232 245 251 251 250 249 248 247
251 247 247 251 245 239 241 236 235 232 229 232 244 252 256 260 256 256 266 264 260 253 252 261 263 263 261 260 226 216 230 240 247 250 249 247 246 246
253 251 248 249 244 232 241 247 248 246 237 230 234 242 250 254 252 254 251 251 254 251 235 243 256 262 263 261 248 218 223 233 240 244 244 244 243 243
258 255 249 247 249 227 236 244 248 248 250 238 225 233 240 239 227 236 246 249 253 255 245 239 250 259 264 258 254 239 225 224 228 233 235 236 233 238
269 264 260 240 238 235 234 245 250 255 255 251 245 236 231 230 227 221 227 240 248 250 248 236 247 254 258 267 267 260 258 257 238 231 225 225 221 224
279 278 279 276 254 243 238 245 247 250 253 252 249 244 239 233 228 225 221 226 238 250 259 258 255 256 262 266 266 262 256 254 256 259 254 219 213 220
279 280 284 285 277 260 244 238 238 241 243 243 243 243 242 238 236 229 228 227 234 240 244 243 246 251 253 259 265 266 265 258 251 253 253 250 242 227
280 284 275 264 257 256 258 242 237 238 237 240 243 244 243 239 233 232 230 225 229 233 232 234 238 245 248 251 257 260 260 261 258 254 254 253 249 245
310 294 281 273 266 258 252 247 242 235 233 238 242 242 241 239 236 230 231 233 235 238 237 226 224 228 239 250 253 251 254 255 254 254 254 257 254 248
284 278 275 273 271 269 264 257 247 242 238 235 235 235 236 237 236 233 231 233 237 239 240 239 229 225 229 234 235 251 254 255 253 248 249 253 254 250
268 270 272 273 272 270 268 264 260 253 245 241 238 235 234 236 235 233 232 234 236 239 240 238 235 232 235 241 232 215 237 249 251 248 244 246 252 254
276 280 280 279 276 275 274 272 268 263 254 246 240 236 232 232 233 234 234 233 235 237 239 237 235 233 237 248 258 240 212 235 245 249 251 249 250 251
297 293 289 286 282 280 279 277 273 268 261 251 243 237 235 233 234 235 236 233 235 239 239 238 237 236 244 252 256 254 237 218 234 248 255 258 256 251
301 297 293 288 285 280 277 276 273 267 263 256 246 239 236 235 235 235 234 232 231 234 241 244 239 232 233 237 244 250 253 242 222 232 245 255 260 259
305 302 296 292 290 284 276 274 273 269 262 256 250 245 239 235 233 232 232 234 235 237 242 243 241 235 234 236 243 250 255 255 249 236 234 227 230 244